[[{"header":{"parameterUnit":"m.s-1","parameterCategory":1,"la1":30.2991,"la2":30.254,"lo1":-89.0895,"lo2":-89.0444,"dy":0.0017,"dx":0.0017,"nx":28,"ny":28,"refTime":"2025-01-08T09:00:00:Z","depth":0,"parameterNumber":2,"parameterNumberName":"U-component_of_WINDS"},"data":[0,0,0,0,0,0,0,0,0,0,0,0,0,0,0,0,0,0,0,0,0,0,0,0,0,0,0,0,0,0,0,0,0,0,0,0,0,0,0,0,0,0,0,0,0,0,0,0,0,0,0,0,0,0,0,0,0,0,1.4832,1.4832,0,1.4835,1.4835,1.4835,1.4819,1.4819,1.4818,1.4818,1.4821,1.4821,1.4822,0,0,0,0,0,0,0,0,0,0,0,0,0,1.4813,1.4813,1.4832,1.4832,1.4832,1.4835,1.4835,1.4835,1.4819,1.4819,1.4818,1.4818,1.4821,1.4821,1.4822,0,0,0,0,0,0,0,0,0,0,0,0,0,1.4819,1.4813,1.4832,1.4825,1.4824,1.4835,1.4835,1.4835,1.482,1.4819,1.4818,1.4818,1.482,1.4821,1.4822,1.484,0,0,1.4824,1.4825,0,0,0,0,0,0,0,0,1.4819,1.482,1.4826,1.4825,1.4824,1.4826,1.483,1.4837,1.482,1.4821,1.4818,1.4817,1.4823,1.4824,1.4826,1.4841,1.4841,1.4824,1.4825,1.4825,1.4825,0,0,0,0,0,0,0,1.4818,1.4819,1.4833,1.4826,1.4825,1.4821,1.4821,1.4831,1.4826,1.4821,1.482,1.4821,1.4823,1.4825,1.4826,1.4841,1.4824,1.4825,1.4825,1.4826,1.4873,1.4874,0,0,0,0,0,0,1.4819,1.4819,1.4833,1.4833,1.482,1.4822,1.4822,1.4826,1.4826,1.4825,1.4821,1.482,1.4824,1.4825,1.4826,1.4848,1.4825,1.4826,1.4826,1.4872,1.4873,1.4874,0,0,0,0,0,0,1.4818,1.482,1.4833,1.4826,1.4827,1.4823,1.4828,1.4827,1.4829,1.4826,1.4825,1.4824,1.4824,1.4825,1.4837,1.4848,1.4826,1.4827,1.4871,1.4872,1.4873,1.4893,0,0,0,0,0,0,1.4818,1.482,1.4827,1.4826,1.4828,1.4844,1.4829,1.4827,1.4831,1.4829,1.4829,1.4828,1.4823,1.4836,1.4838,1.4849,1.4827,1.487,1.4872,1.4873,1.4892,1.4895,1.4898,0,0,0,0,0,1.4817,1.4832,1.4827,1.4829,1.4836,1.4845,1.4846,1.484,1.4831,1.4838,1.4837,1.4828,1.4847,1.4838,1.484,1.4851,1.4869,1.4871,1.4873,1.489,1.4894,1.4898,0,0,0,0,0,0,1.4833,1.4831,1.4826,1.4841,1.4844,1.4842,1.4851,1.4844,1.4849,1.4847,1.484,1.484,1.4854,1.4854,1.4844,1.487,1.4857,1.4859,1.4869,1.4873,1.4876,1.4876,1.4828,0,0,0,0,0,1.4838,1.4845,1.4844,1.4857,1.4859,1.4855,1.4858,1.4854,1.4856,1.4857,1.4856,1.4858,1.4864,1.4869,1.4874,1.4892,1.4892,1.4901,1.4904,1.4906,1.4908,1.4919,1.4923,1.488,1.488,1.488,0,0,1.4849,1.4849,1.4854,1.486,1.4861,1.487,1.4855,1.4864,1.487,1.4858,1.487,1.487,1.4872,1.4887,1.4894,1.4887,1.492,1.4909,1.4911,1.4911,1.4921,1.4925,1.4929,1.4881,1.4881,1.4881,0,0,1.4872,1.4873,1.4885,1.4887,1.4889,1.4887,1.489,1.489,1.489,1.4902,1.4893,1.4901,1.4912,1.4914,1.4916,1.4944,1.4936,1.4946,1.4962,1.4972,1.4975,1.4978,1.4989,1.4992,1.4948,1.4948,1.4948,0,1.4885,1.4897,1.4891,1.4901,1.4905,1.4895,1.4907,1.4909,1.4913,1.4916,1.4909,1.4924,1.4925,1.4941,1.4948,1.495,1.4954,1.4945,1.4975,1.4978,1.4981,1.4991,1.4995,1.4949,1.4949,1.4949,1.4949,0,1.4913,1.4922,1.4931,1.4936,1.4941,1.4952,1.4948,1.4954,1.4949,1.4948,1.4961,1.4962,1.4969,1.4972,1.4968,1.4989,1.4985,1.4977,1.4963,1.4986,1.4995,1.4999,1.4951,1.495,1.495,1.495,0,0,1.4945,1.4948,1.4952,1.4955,1.4958,1.4964,1.4976,1.4982,1.4988,1.4991,1.5001,1.5012,1.5005,1.5008,1.5004,1.5013,1.5035,1.5004,1.5004,1.501,1.506,1.5066,1.507,1.5031,1.5031,1.5032,1.5059,0,1.4969,1.4988,1.4984,1.5003,1.5011,1.5003,1.5013,1.5016,1.5016,1.5023,1.5023,1.5031,1.502,1.5023,1.5031,1.5031,1.5045,1.5029,1.504,1.504,1.5039,1.5074,1.508,1.5106,1.5063,1.5063,1.5064,0,1.4998,1.5004,1.5024,1.5027,1.5031,1.5039,1.5046,1.5053,1.5057,1.5057,1.5061,1.5056,1.5068,1.5055,1.5072,1.5061,1.5065,1.5066,1.5067,1.5068,1.5053,1.5076,1.5114,1.5118,1.5069,1.5069,1.5068,0,1.502,1.5033,1.5047,1.505,1.5053,1.506,1.5062,1.5066,1.507,1.5077,1.508,1.5087,1.5091,1.5097,1.5095,1.5086,1.5112,1.5099,1.5112,1.5112,1.5118,1.5117,1.5157,1.5121,1.5121,1.5121,1.5121,0,1.5047,1.5059,1.5057,1.5066,1.508,1.5076,1.5091,1.5092,1.5095,1.5104,1.5097,1.5106,1.5102,1.5111,1.5109,1.5123,1.5125,1.5125,1.5124,1.5126,1.5126,1.5128,1.5126,1.5122,1.5121,1.5121,1.5121,0,1.5073,1.5072,1.5087,1.509,1.5091,1.5102,1.5105,1.5113,1.5113,1.5124,1.5127,1.5127,1.5137,1.5135,1.5145,1.5144,1.5163,1.516,1.5162,1.5161,1.5174,1.5173,1.5217,1.5223,1.5183,1.5183,1.5183,0,1.509,1.51,1.5105,1.511,1.5113,1.5122,1.5128,1.5125,1.5131,1.5137,1.5145,1.5155,1.5162,1.5179,1.518,1.5188,1.5186,1.52,1.5187,1.5188,1.5186,1.5186,1.5187,1.5203,1.5203,1.5204,1.5204,0,1.5121,1.512,1.5128,1.5137,1.5143,1.515,1.5155,1.5161,1.5159,1.5166,1.5176,1.5182,1.5194,1.5204,1.5212,1.5215,1.5209,1.5209,1.5212,1.5213,1.5214,1.5214,1.5169,1.5207,1.5207,1.5207,1.5207,1.5206,1.5143,1.5152,1.5157,1.5166,1.5171,1.5177,1.5185,1.5187,1.5196,1.5205,1.5203,1.5215,1.5221,1.5232,1.5235,1.5245,1.524,1.5245,1.5246,1.5247,1.5249,1.5213,1.5247,1.5246,1.5246,1.5246,1.5246,0,1.5173,1.5177,1.5186,1.5194,1.5202,1.5197,1.5204,1.5211,1.5222,1.5228,1.5236,1.5248,1.5258,1.5261,1.5271,1.5278,1.5276,1.5281,1.528,1.5281,1.5253,1.5249,1.5283,1.5283,1.5283,1.5283,1.5283,1.5283,1.519,1.5205,1.5205,1.5223,1.5226,1.5238,1.5243,1.5249,1.5253,1.5268,1.5276,1.5278,1.5283,1.5293,1.5303,1.5303,1.5307,1.5313,1.5313,1.5287,1.5283,1.5279,1.5276,1.5314,1.5314,1.534,1.534,1.5341]},{"header":{"parameterUnit":"m.s-1","parameterCategory":1,"la1":30.2991,"la2":30.254,"lo1":-89.0895,"lo2":-89.0444,"dy":0.0017,"dx":0.0017,"nx":28,"ny":28,"refTime":"2025-01-08T09:00:00:Z","depth":0,"parameterNumber":3,"parameterNumberName":"V-component_of_WINDS"},"data":[0,0,0,0,0,0,0,0,0,0,0,0,0,0,0,0,0,0,0,0,0,0,0,0,0,0,0,0,0,0,0,0,0,0,0,0,0,0,0,0,0,0,0,0,0,0,0,0,0,0,0,0,0,0,0,0,0,0,-5.1365,-5.1366,0,-5.1461,-5.1462,-5.1463,-5.1454,-5.1453,-5.1451,-5.145,-5.1543,-5.1546,-5.155,0,0,0,0,0,0,0,0,0,0,0,0,0,-5.117,-5.1173,-5.1365,-5.1366,-5.1368,-5.1461,-5.1462,-5.1464,-5.1454,-5.1452,-5.1451,-5.1449,-5.1541,-5.1546,-5.1551,0,0,0,0,0,0,0,0,0,0,0,0,0,-5.1259,-5.1175,-5.1365,-5.1374,-5.1376,-5.1461,-5.1462,-5.1464,-5.1455,-5.1452,-5.145,-5.1448,-5.154,-5.1546,-5.1551,-5.1631,0,0,-5.1569,-5.1571,0,0,0,0,0,0,0,0,-5.1254,-5.1266,-5.1372,-5.1374,-5.1376,-5.1444,-5.1428,-5.152,-5.1455,-5.1425,-5.145,-5.1447,-5.1511,-5.1519,-5.1542,-5.1636,-5.164,-5.1569,-5.1573,-5.1575,-5.1577,0,0,0,0,0,0,0,-5.1248,-5.1262,-5.1403,-5.1373,-5.1376,-5.1372,-5.1383,-5.1445,-5.1479,-5.1427,-5.1427,-5.1438,-5.1512,-5.1536,-5.1544,-5.1641,-5.1569,-5.1574,-5.1578,-5.158,-5.1807,-5.1809,0,0,0,0,0,0,-5.124,-5.1257,-5.14,-5.1406,-5.1308,-5.1378,-5.1389,-5.1424,-5.1478,-5.1485,-5.144,-5.1438,-5.1527,-5.1537,-5.1547,-5.1646,-5.1575,-5.1581,-5.1584,-5.1804,-5.1808,-5.181,0,0,0,0,0,0,-5.1236,-5.1253,-5.1396,-5.1331,-5.1349,-5.1384,-5.1423,-5.1427,-5.1452,-5.1488,-5.1494,-5.1459,-5.1526,-5.1539,-5.1611,-5.1649,-5.1583,-5.1589,-5.1801,-5.1805,-5.1809,-5.1843,0,0,0,0,0,0,-5.123,-5.1251,-5.1283,-5.1332,-5.1353,-5.146,-5.1425,-5.143,-5.1462,-5.146,-5.1508,-5.1513,-5.1525,-5.1603,-5.1617,-5.1656,-5.1593,-5.1798,-5.1803,-5.1808,-5.1838,-5.1847,-5.1855,0,0,0,0,0,-5.1223,-5.1287,-5.1284,-5.1302,-5.1393,-5.1462,-5.1474,-5.1488,-5.1465,-5.1497,-5.1521,-5.1512,-5.1642,-5.161,-5.1626,-5.1667,-5.1796,-5.1802,-5.1807,-5.1835,-5.1845,-5.1855,0,0,0,0,0,0,-5.1238,-5.1293,-5.1291,-5.1373,-5.1413,-5.146,-5.15,-5.1498,-5.1544,-5.1539,-5.1553,-5.1564,-5.1637,-5.1659,-5.1622,-5.1748,-5.1716,-5.1725,-5.1731,-5.1742,-5.175,-5.1743,-5.1598,0,0,0,0,0,-5.1252,-5.1305,-5.1349,-5.1417,-5.1437,-5.1466,-5.1496,-5.1504,-5.1545,-5.1561,-5.159,-5.1629,-5.1679,-5.1712,-5.1759,-5.1842,-5.1852,-5.1878,-5.1886,-5.1892,-5.19,-5.1946,-5.1958,-5.1829,-5.1829,-5.1829,0,0,-5.1279,-5.1316,-5.1347,-5.1421,-5.1453,-5.1506,-5.148,-5.1537,-5.1576,-5.1569,-5.164,-5.1663,-5.1707,-5.1785,-5.1821,-5.1806,-5.1938,-5.19,-5.1905,-5.1909,-5.1954,-5.1966,-5.1977,-5.1833,-5.1832,-5.1832,0,0,-5.1356,-5.1389,-5.145,-5.1483,-5.1533,-5.1552,-5.1567,-5.1615,-5.163,-5.1702,-5.1699,-5.1745,-5.1831,-5.1863,-5.1891,-5.1983,-5.1977,-5.1998,-5.204,-5.2085,-5.2096,-5.2105,-5.2138,-5.215,-5.2005,-5.2006,-5.2006,0,-5.1383,-5.1465,-5.1481,-5.154,-5.1572,-5.1571,-5.1633,-5.1664,-5.1726,-5.1748,-5.173,-5.1839,-5.1869,-5.1955,-5.1978,-5.2,-5.2017,-5.1992,-5.2093,-5.2102,-5.2111,-5.2143,-5.2156,-5.2008,-5.2008,-5.2007,-5.2007,0,-5.1496,-5.1553,-5.1596,-5.1659,-5.1696,-5.1756,-5.178,-5.1816,-5.1821,-5.1842,-5.1915,-5.1951,-5.2007,-5.2028,-5.2032,-5.2116,-5.2105,-5.209,-5.2058,-5.2126,-5.2156,-5.2168,-5.2011,-5.201,-5.201,-5.2009,0,0,-5.1583,-5.1657,-5.1672,-5.1702,-5.1758,-5.1801,-5.1861,-5.1918,-5.1949,-5.1992,-5.2042,-5.2116,-5.2104,-5.2135,-5.2143,-5.2183,-5.2255,-5.2164,-5.2165,-5.218,-5.235,-5.2361,-5.2375,-5.2251,-5.2254,-5.2256,-5.2346,0,-5.1666,-5.1775,-5.1792,-5.1887,-5.194,-5.1941,-5.1993,-5.2032,-5.2053,-5.21,-5.2123,-5.2175,-5.2155,-5.2174,-5.2213,-5.2238,-5.2289,-5.2231,-5.2298,-5.23,-5.2287,-5.239,-5.2402,-5.2485,-5.2358,-5.236,-5.2361,0,-5.1777,-5.1827,-5.1927,-5.1978,-5.2001,-5.2048,-5.2103,-5.2148,-5.2193,-5.2205,-5.2242,-5.2246,-5.2308,-5.2274,-5.2358,-5.2319,-5.2347,-5.2363,-5.2367,-5.2373,-5.2335,-5.24,-5.2512,-5.2525,-5.238,-5.2379,-5.2377,0,-5.1832,-5.1923,-5.1996,-5.2021,-5.2082,-5.2115,-5.2141,-5.2185,-5.2218,-5.2266,-5.2288,-5.2341,-5.237,-5.241,-5.2428,-5.2402,-5.2512,-5.2479,-5.2524,-5.2524,-5.2547,-5.2545,-5.2665,-5.2565,-5.2564,-5.2564,-5.2564,0,-5.1923,-5.1985,-5.2022,-5.2066,-5.2136,-5.2155,-5.2223,-5.2248,-5.2287,-5.2336,-5.2339,-5.2384,-5.2405,-5.2454,-5.2468,-5.2536,-5.2549,-5.256,-5.2563,-5.2561,-5.2559,-5.2579,-5.2574,-5.2568,-5.2567,-5.2566,-5.2566,0,-5.1995,-5.2023,-5.2102,-5.2155,-5.2169,-5.2218,-5.2262,-5.2305,-5.2327,-5.2389,-5.2404,-5.2438,-5.2496,-5.2518,-5.2587,-5.2597,-5.2676,-5.2674,-5.2662,-5.2663,-5.2706,-5.2702,-5.2844,-5.2863,-5.2749,-5.275,-5.2751,0,-5.2052,-5.21,-5.2158,-5.2193,-5.2221,-5.2276,-5.2311,-5.2332,-5.2369,-5.2425,-5.2462,-5.252,-5.2567,-5.2659,-5.2688,-5.2742,-5.2741,-5.2788,-5.2749,-5.2745,-5.2743,-5.274,-5.2745,-5.2794,-5.2795,-5.2796,-5.2797,0,-5.2149,-5.2161,-5.2213,-5.2271,-5.2314,-5.236,-5.2404,-5.2432,-5.2459,-5.25,-5.2561,-5.2598,-5.2671,-5.2728,-5.2784,-5.2809,-5.2808,-5.2809,-5.2823,-5.282,-5.2811,-5.2817,-5.2681,-5.2806,-5.2805,-5.2804,-5.2804,-5.2803,-5.2215,-5.2259,-5.2308,-5.2366,-5.2403,-5.2445,-5.2489,-5.2517,-5.2569,-5.2631,-5.264,-5.2705,-5.275,-5.2825,-5.2853,-5.2903,-5.2891,-5.291,-5.2915,-5.2919,-5.2923,-5.2803,-5.2913,-5.2913,-5.2913,-5.2913,-5.2912,0,-5.2313,-5.2346,-5.24,-5.2464,-5.251,-5.2507,-5.2557,-5.2595,-5.2653,-5.2696,-5.2744,-5.2813,-5.287,-5.2905,-5.2962,-5.2995,-5.2996,-5.3009,-5.3007,-5.3013,-5.293,-5.2913,-5.3008,-5.3008,-5.3008,-5.3008,-5.3008,-5.3008,-5.237,-5.2444,-5.2462,-5.2554,-5.2585,-5.2651,-5.268,-5.2719,-5.2753,-5.2832,-5.288,-5.2904,-5.2944,-5.3004,-5.3055,-5.3064,-5.3085,-5.3099,-5.3107,-5.3029,-5.3019,-5.3009,-5.2994,-5.3103,-5.3104,-5.3186,-5.3187,-5.3187]}]]